Flag for Canada Weather past 2 weeks in Sarnia, Ontario, Canada

Now
25 °F

Ice fog.


Feels Like: 20 °F
Forecast: 27 / 38 °F
Wind: 3 mph from Southeast

Location: Sarnia Airport

Current Time: Dec 22, 2014 at 1:51:21 AM

Latest Report: Dec 22, 2014 at 1:00 AM


Visibility: 5 mi

Pressure: 30.21 "Hg

Humidity: 93%

Dew point: 23 °F

Location of SarniaLocation

Historic Weather in Sarnia — Graph

°F

Sarnia temperature yesterday

Maximum temperature yesterday: 36 °F (at 2:00 PM)
Minimum temperature yesterday: 23 °F (at 8:00 AM)
Average temperature yesterday: 28 °F

Past Weeks' High & Low Weather Summary

 TemperatureHumidityPressure
High45 °F (Dec 15, 9:00 AM)100% (Dec 9, 2:00 AM)30.75 "Hg (Dec 9, 2:00 AM)
Low23 °F (Dec 7, 8:00 AM)32% (Dec 7, 2:00 PM)29.65 "Hg (Dec 16, 1:57 PM)
Average34 °F81%30.15 "Hg
* Reported Midnight between Dec 6 and Dec 7 — Midnight between Dec 21 and Dec 22, Sarnia, Weather by CustomWeather, © 2014

Note: Actual official high and low records may vary slightly from our data, if they occured in-between our weather recording intervals... More about our weather records

Advertising

Sarnia weather history for previous 24 hours

 ConditionsComfort  
Time TempWeatherWind HumidityBarometerVisibility
12:00 AM
Dec 22
25 °FIce fog.3 mph86%30.24 "Hg5 mi
11:00 PM
Dec 21
25 °FClear.5 mph86%30.26 "Hg5 mi
10:00 PM25 °FPartly cloudy.6 mph93%30.26 "Hg7 mi
9:00 PM27 °FChilly.7 mph86%30.27 "Hg7 mi
8:00 PM27 °FPassing clouds.7 mph86%30.27 "Hg8 mi
7:00 PM27 °FChilly.6 mph86%30.28 "Hg9 mi
6:00 PM28 °FClear.5 mph80%30.27 "Hg9 mi
5:00 PM30 °FClear.5 mph75%30.27 "Hg9 mi
4:00 PM34 °FSunny.9 mph65%30.27 "Hg9 mi
3:00 PM36 °FSunny.10 mph60%30.25 "Hg9 mi
2:00 PM36 °FSunny.10 mph60%30.27 "Hg9 mi
1:00 PM34 °FSunny.9 mph60%30.29 "Hg9 mi
11:00 AM32 °FOvercast.8 mph64%30.34 "Hg9 mi
10:00 AM30 °FSunny.6 mph69%30.34 "Hg9 mi
9:00 AM25 °FIce fog.3 mph86%30.34 "Hg6 mi
8:00 AM23 °FSunny.6 mph86%30.34 "Hg8 mi
7:00 AM28 °FOvercast.2 mph74%30.34 "Hg9 mi
6:00 AM27 °FOvercast.2 mph86%30.34 "Hg8 mi
5:00 AM27 °FIce fog.2 mph86%30.32 "Hg6 mi
4:00 AM27 °FOvercast.No wind86%30.32 "Hg7 mi
3:00 AM27 °FOvercast.2 mph86%30.32 "Hg7 mi
2:00 AM27 °FOvercast.3 mph80%30.31 "Hg8 mi
1:00 AM27 °FOvercast.5 mph80%30.30 "Hg7 mi
Weather by CustomWeather, © 2014

See weather overviewHow to use our weather pages